• Join FlightAware (Why Join?)
  • Login
  • US Flag 
07:03PM EST


 

Airport Tracker/Info


-or-


 

Live Flight TrackerFlight Track Log ✈ FFT333 ✈ 26-Apr-2013 ✈ KDEN - KABQ

Flight Track Log - Related Links

Times and Time Zones

All times are in EDT time to prevent confusion due to time zone crossing. See the FFT333 flight status page for this flight to view local times or setup timezone preferences in your user account.

Time Position Orientation Groundspeed Altitude Reporting Facility
EDT Latitude Longitude Course Direction KTS MPH feet Rate Location/Type
10:27AM 39.8333 -104.7833 197° South 200 230 7,400  Level Denver TRACON
10:28AM 39.8000 -104.8833 247° West 293 337 9,600 2,500 Climbing Denver TRACON
10:29AM 39.7333 -104.9167 201° Southwest 339 390 12,400 3,016 Climbing Denver TRACON
10:31AM 39.5211 -104.8658 170° South 363 418 19,000 2,921 Climbing Denver Center
10:32AM 39.2767 -104.9226 197° South  Level Estimated
10:32AM 39.4200 -104.8392 168° South 373 429 21,600  Level Denver Center
10:33AM 39.3061 -104.8092 168° South 390 449 24,100 2,146 Climbing Denver Center
10:34AM 39.2050 -104.7797 167° South 399 459 26,000 1,902 Climbing Denver Center
10:35AM 39.0900 -104.7506 169° South 415 478 28,000 2,129 Climbing Denver Center
10:36AM 38.9550 -104.7908 193° South 416 479 30,400 2,129 Climbing Denver Center
10:37AM 38.8500 -104.8572 206° Southwest 414 476 32,400 1,742 Climbing Denver Center
10:38AM 38.7428 -104.9231 206° Southwest 421 484 34,000 774 Climbing Denver Center
10:39AM 38.6419 -104.9925 208° Southwest 410 472 34,000  Level Denver Center
10:40AM 38.5394 -105.0636 208° Southwest 413 475 34,000  Level Denver Center
10:41AM 38.4361 -105.1358 209° Southwest 419 482 34,000  Level Denver Center
10:42AM 38.3239 -105.2119 208° Southwest 410 472 34,000  Level Denver Center
10:43AM 38.2283 -105.2767 208° Southwest 407 468 34,000  Level Denver Center
10:44AM 38.1169 -105.3525 208° Southwest 407 468 34,000  Level Denver Center
10:45AM 38.0200 -105.4189 208° Southwest 412 474 34,000  Level Denver Center
10:46AM 37.9075 -105.4953 208° Southwest 412 474 34,000 48 Level Denver Center
10:47AM 37.8103 -105.5611 208° Southwest 414 476 34,100  Climbing Denver Center
10:48AM 37.7103 -105.6269 208° Southwest 419 482 34,000 -48 Descending Denver Center
10:49AM 37.5903 -105.6892 202° Southwest 419 482 34,000  Level Denver Center
10:50AM 37.4775 -105.7478 202° Southwest 413 475 34,000  Level Denver Center
10:51AM 37.3747 -105.8006 202° Southwest 414 476 34,000  Level Denver Center
10:53AM 37.2539 -105.8556 200° South 414 476 34,000  Level Denver Center
10:54AM 37.1494 -105.9014 199° South 414 476 34,000 -194 Level Denver Center
10:55AM 37.0292 -105.9550 200° South 411 473 33,600 -435 Descending Denver Center
10:56AM 36.9214 -106.0017 199° South 410 472 33,100 -435 Descending Denver Center
10:57AM 36.8189 -106.0464 199° South 406 467 32,700 -484 Descending Denver Center
10:58AM 36.7050 -106.0978 200° South 404 465 32,100 -328 Descending Denver Center
10:59AM 36.5853 -106.1514 200° South 416 479 32,000 -47 Descending Albuquerque Center
11:00AM 36.4850 -106.1967 200° South 404 465 32,000 -194 Level Albuquerque Center
11:01AM 36.3658 -106.2494 200° South 404 465 31,600 -1,306 Descending Albuquerque Center
11:02AM 36.2631 -106.2942 199° South 407 468 29,300 -2,323 Descending Albuquerque Center
11:03AM 36.1558 -106.3425 200° South 397 457 26,800 -2,419 Descending Albuquerque Center
11:04AM 36.0536 -106.3861 199° South 391 450 24,300 -2,419 Descending Albuquerque Center
11:05AM 35.9514 -106.4311 200° South 389 448 21,800 -2,129 Descending Albuquerque Center
11:06AM 35.8389 -106.4778 199° South 386 444 19,900 -1,984 Descending Albuquerque Center
11:07AM 35.7358 -106.5208 199° South 365 420 17,700 -1,776 Descending Albuquerque Center
11:08AM 35.6422 -106.5569 197° South 356 410 16,200 -1,536 Descending Albuquerque Center
11:09AM 35.5514 -106.5989 201° Southwest 350 403 14,500 -1,538 Descending Albuquerque Center
11:09AM 35.5175 -106.6178 204° Southwest 348 400 14,200 -1,065 Descending Albuquerque Center
11:10AM 35.4661 -106.6458 204° Southwest 340 391 13,400 -1,433 Descending Albuquerque Center
11:11AM 35.4294 -106.6639 202° Southwest 319 367 12,600 -1,645 Descending Albuquerque Center
11:11AM 35.3850 -106.6894 205° Southwest 323 372 11,700 -1,600 Descending Albuquerque Center
11:12AM 35.3497 -106.7081 203° Southwest 317 365 11,000 -774 Descending Albuquerque Center
11:12AM 35.3053 -106.7314 203° Southwest 316 364 10,900  Descending Albuquerque Center
11:13AM 35.2636 -106.7536 204° Southwest 309 356 11,000 97 Climbing Albuquerque Center
11:13AM 35.2167 -106.7844 208° Southwest 298 343 11,000  Level Albuquerque Center
11:14AM 35.1986 -106.7964 208° Southwest 261 300 11,000 -387 Level Albuquerque Center
11:14AM 35.1533 -106.8233 206° Southwest 275 316 10,600 -800 Descending Albuquerque Center
11:15AM 35.1325 -106.8339 203° Southwest 252 290 10,200 -1,161 Descending Albuquerque Center
11:15AM 35.0889 -106.8622 208° Southwest 263 303 9,400 -1,034 Descending Albuquerque Center
11:16AM 35.0294 -106.8292 156° South 225 259 8,200 -968 Descending Albuquerque Center
11:17AM 35.0406 -106.7697 77° East 230 265 7,400 -769 Descending Albuquerque Center
11:18AM 35.0447 -106.7056 85° East 206 237 6,700 -726 Descending Albuquerque Center
11:19AM 35.0442 -106.6528 91° East 181 208 5,900 -677 Descending Albuquerque Center
11:20AM 35.0442 -106.6028 90° East 160 184 5,300 -581 Descending Albuquerque Center